Location: ????????
(55.7500°N, 37.5167°E)
Time: 08:08:05
(UTC+00:00)

Daily predictions for brighter satellites

Satellite Brightness Start Highest point End
(mag) Time Altitude Azimuth Time Altitude Azimuth Time Altitude Azimuth
NOSS 3-3 (A) 3.8 18:13:15 10° SSW 18:18:28 60° SE 18:24:49 10° NE
Okean O Rocket 1.9 18:17:13 10° S 18:21:29 69° WSW 18:25:49 10° NNW
Cosmos 909 Rocket 4.1 18:19:51 10° SSW 18:26:01 64° SE 18:32:36 10° NE
Cosmos 2360 Rocket 2.3 18:20:25 10° NNW 18:26:09 79° NE 18:31:50 10° SE
Cosmos 1503 Rocket 4.2 18:21:55 10° NNW 18:27:06 62° ENE 18:32:13 10° SE
Cosmos 44 Rocket 4.2 18:23:25 10° WSW 18:28:30 58° NNW 18:33:40 10° NE
Cosmos 1544 Rocket 3.6 18:24:55 10° S 18:29:11 62° E 18:33:28 10° NNE
Okean 1-7 Rocket 4.0 18:26:38 10° N 18:31:00 49° ENE 18:35:23 10° SSE
Cosmos 2233 Rocket 4.2 18:26:18 10° SSW 18:32:29 79° WNW 18:38:40 10° N
CZ-4B R/B 4.5 18:27:38 10° SSW 18:32:56 41° W 18:38:12 10° NNW
Helios 1A Rocket 3.7 18:31:40 10° N 18:34:39 40° WNW 18:37:37 10° SW
Cosmos 1437 Rocket 2.7 18:31:18 10° S 18:34:46 54° E 18:38:19 10° NNE
Cosmos 2333 4.3 18:30:11 10° NNW 18:35:57 80° NE 18:41:43 10° SE
Cosmos 1486 Rocket 4.1 18:32:48 10° NNW 18:38:06 85° WSW 18:43:23 10° SSE
Cosmos 2219 Rocket 2.4 18:33:16 10° NNW 18:38:56 68° NE 18:44:36 10° SE
BREEZE-M DEB (TANK) 4.1 18:38:32 10° S 18:39:30 11° SSE 18:40:13 10° SSE
Cosmos 1354 Rocket 4.3 18:36:48 10° NNW 18:42:01 59° NE 18:47:10 10° SE
Cosmos 1758 Rocket 4.2 18:38:41 10° NNW 18:43:00 56° W 18:47:21 10° S
Okean-O 3.5 18:39:27 10° S 18:43:40 46° W 18:47:55 10° NNW
Nadezhda 4 Rocket 4.1 18:38:30 10° N 18:44:36 65° ENE 18:50:42 10° SSE
Meteor 1-25 Rocket 4.3 18:41:26 10° NNW 18:47:08 82° WSW 18:52:44 10° S
Cosmos 1766 4.5 18:46:07 10° NNE 18:48:42 22° ENE 18:51:17 10° ESE
NOSS 3-3 (C) 3.8 18:45:32 10° SW 18:50:56 75° SE 18:57:34 10° NE
IRS-1C Rocket 4.2 18:46:35 10° SSE 18:51:52 88° WSW 18:57:12 10° NNW
CZ-2C R/B 1.9 18:49:34 12° SSE 18:52:05 66° ENE 18:54:51 10° N
Cosmos 1825 Rocket 3.6 18:51:25 10° N 18:55:46 68° ENE 18:59:54 11° SSE
Meteor 2-10 4.3 18:50:21 10° NNW 18:56:09 83° ENE 19:01:51 10° SSE
Aureole 1 Rocket 4.2 18:52:34 10° NNW 18:57:58 57° NE 19:04:19 11° SE
Cosmos 2322 Rocket 2.5 18:52:56 10° NW 18:58:34 65° WSW 19:04:02 11° SSE
Cosmos 1805 2.9 18:57:11 10° NNW 19:00:27 72° W 19:03:37 10° S
NOSS 3-4 (A) 4.2 18:54:08 10° NW 19:00:31 57° SW 19:07:41 11° SSE
NOSS 3-4 (C) 4.1 18:54:45 10° NW 19:01:10 57° SW 19:08:20 11° SSE
Cosmos 1953 Rocket 4.0 18:58:11 10° N 19:02:27 50° ENE 19:06:08 13° SSE
Cosmos 220 Rocket 3.8 18:58:47 10° SSW 19:02:48 64° ESE 19:06:54 10° NNE
DEBRIS 4.1 19:00:19 10° WSW 19:03:48 47° SSE 19:14:34 10° E
Helios 1A 4.5 19:01:38 10° NE 19:04:27 19° E 19:06:42 12° SE
RESURS DK-1 3.4 19:02:41 10° NNW 19:06:25 37° NE 19:10:09 10° ESE
Cosmos 2082 Rocket 3.1 19:00:56 10° SW 19:06:34 56° NW 19:12:12 10° NNE
Cosmos 2026 Rocket 4.3 19:00:33 10° N 19:06:53 59° ENE 19:12:36 13° SSE
Cosmos 1602 Rocket 4.1 19:02:46 10° NNW 19:07:00 55° W 19:11:13 10° S
TSX-5 4.0 19:06:46 10° NNW 19:09:46 45° NE 19:12:36 12° ESE
ATLAS 2AS CENTAUR R/B 3.9 19:06:04 10° W 19:12:37 45° N 19:19:05 10° ENE
CZ-4C R/B 3.3 19:11:44 10° W 19:16:30 48° NNW 19:22:44 10° ENE
Cosmos 2237 Rocket 3.6 19:11:43 10° NNW 19:16:51 33° NE 19:21:56 10° E
Cosmos 2151 4.5 19:14:24 10° NNW 19:18:04 31° W 19:21:41 10° SSW
CZ-4B R/B 3.8 19:15:43 10° SSW 19:18:51 35° W 19:22:06 10° NNW
Cosmos 2058 Rocket 4.1 19:16:46 14° SE 19:19:42 29° E 19:23:27 10° NNE
Cosmos 44 3.5 19:14:27 10° NW 19:19:55 82° SW 19:24:28 14° SE
Cosmos 1076 Rocket 3.4 19:15:54 10° NNW 19:20:11 85° ENE 19:23:44 14° SSE
Cosmos 1707 3.4 19:20:35 17° SE 19:21:51 23° E 19:24:12 10° NE
Cosmos 2098 Rocket 3.0 19:17:40 10° S 19:22:18 88° W 19:26:16 10° N
USA 306 1.1 19:21:01 10° W 19:23:29 46° S 19:23:57 34° SE
Ariane Rocket 3.6 19:19:11 10° S 19:24:07 53° W 19:29:06 10° NNW
SL-16 R/B 3.8 19:24:36 10° NW 19:29:16 27° WSW 19:33:54 10° SSW
COSMOS 2428 3.1 19:24:53 10° NNW 19:30:33 61° NE 19:35:39 13° SE
Cosmos 1763 Rocket 3.6 19:31:20 10° S 19:36:30 58° ESE 19:41:40 10° NNE
Cosmos 1898 Rocket 3.8 19:34:50 10° NNW 19:40:00 61° ENE 19:44:13 15° SE
Cosmos 1470 3.5 19:37:56 10° N 19:40:58 32° ENE 19:42:55 17° SE
Cosmos 1464 Rocket 4.1 19:35:03 10° SSW 19:41:12 80° WNW 19:47:28 10° N
ARIANE 5 R/B 3.7 19:37:58 13° SE 19:41:26 35° ENE 19:45:30 10° N
Cosmos 990 Rocket 4.4 19:36:58 10° NNW 19:42:03 57° WSW 19:46:07 16° S
ALOS 2 3.9 19:40:00 12° ESE 19:43:27 31° ENE 19:47:20 10° N
Cosmos 1606 Rocket 3.7 19:40:33 10° SSW 19:44:52 72° WNW 19:49:12 10° N
USA 290 2.1 19:45:51 10° SSW 19:48:59 83° WNW 19:52:09 10° NNE
COSMOS 2406 4.1 19:44:52 10° SW 19:50:30 54° NW 19:56:09 10° NNE
BREEZE-M R/B 4.4 19:42:16 10° W 19:50:42 57° SSW 19:56:15 10° ESE
Cosmos 1726 Rocket 3.4 19:48:56 13° SSW 19:52:34 79° WNW 19:56:40 10° N
Helios 1B rocket 2.2 19:50:25 21° SSE 19:52:36 64° ENE 19:56:05 10° N
ISS -2.9 19:51:05 10° W 19:54:07 31° SSW 19:55:19 24° SSE
Cosmos 1461 3.4 19:51:02 10° WSW 19:54:40 53° NW 19:58:16 10° NE
Okean 1 3.4 19:51:56 12° SSW 19:55:14 61° WNW 19:58:50 10° N
Cosmos 1092 Rocket 4.0 19:49:31 10° NNW 19:55:44 85° W 20:00:43 17° S
NOSS 0 Rocket 4.1 19:51:28 10° NW 19:57:41 74° NE 20:02:54 15° SE
Okean O Rocket 4.3 19:57:16 10° W 19:58:31 11° W 19:59:47 10° WNW
Cosmos 2333 Rocket 4.2 19:55:23 10° WNW 19:59:16 19° W 20:03:09 10° SW
Cosmos 1536 2.6 19:56:29 10° NNW 20:00:11 82° WSW 20:02:27 22° S
CSL-04 DEB 4.1 20:01:43 23° SSE 20:03:52 74° ENE 20:07:32 10° NNW
Cosmos-2242 2.8 20:01:32 18° S 20:04:32 81° E 20:08:41 10° NNE
Cosmos 2297 Rocket 3.8 20:04:29 14° SE 20:06:56 18° E 20:10:41 10° ENE
Meteor 1-14 Rocket 4.3 20:02:36 10° NNW 20:08:11 71° ENE 20:12:09 19° SSE
Cosmos 1833 4.1 20:03:34 10° SSW 20:09:14 83° ESE 20:14:53 10° NE
Cosmos 2360 Rocket 3.7 20:05:02 10° NW 20:09:35 25° WSW 20:13:59 11° SSW
Cosmos 841 Rocket 4.4 20:07:30 19° SSE 20:10:20 33° ESE 20:14:59 10° NE
KORONAS-FOTON 3.5 20:10:38 25° S 20:12:25 66° E 20:15:48 10° NNE
Cosmos 2322 3.8 20:08:43 10° NW 20:14:25 74° WSW 20:18:24 20° SSE
ACS3 Solar Sail 4.1 20:14:09 10° ENE 20:14:30 10° ENE 20:14:50 10° ENE
NOSS 8 (E) 4.3 20:17:07 10° NW 20:20:02 64° NE 20:22:02 19° ESE
Cosmos 2034 Rocket 4.4 20:14:05 10° SSW 20:20:24 66° WNW 20:26:44 10° N
Meteor 2-6 Rocket 4.4 20:16:18 19° S 20:20:42 66° E 20:26:36 10° NNE
Spot 4 3.9 20:18:18 21° SSE 20:21:30 73° ENE 20:26:19 10° NNW
Cosmos 1766 4.0 20:19:17 10° NNW 20:22:14 33° W 20:24:01 18° SSW
Cosmos 372 Rocket 4.2 20:17:17 10° NNW 20:22:19 57° WSW 20:25:35 21° S
Cosmos 2219 Rocket 3.4 20:17:38 10° NW 20:22:31 30° WSW 20:26:24 14° SSW
Cosmos 1975 2.6 20:19:21 10° N 20:23:03 73° ENE 20:24:59 26° SSE
SL-08 ROCKET BODY 4.5 20:19:17 10° NNW 20:25:30 84° W 20:29:58 20° S
Cosmos 1842 2.6 20:24:12 30° S 20:25:34 69° E 20:28:44 10° NNE
Cosmos 1812 Rocket 4.3 20:26:01 22° SSE 20:28:20 39° E 20:32:27 10° NNE
Cosmos 2221 2.8 20:27:01 24° SSE 20:29:13 49° E 20:33:17 10° NNE
Cosmos 540 Rocket 3.8 20:28:51 10° SW 20:33:58 66° WNW 20:39:07 10° NNE
Cosmos 1271 Rocket 2.3 20:33:00 29° S 20:34:35 72° ESE 20:37:57 10° NNE
ARGOS Delta rocket 4.4 20:30:51 10° NNE 20:35:52 51° E 20:39:07 22° SSE
Cosmos 2279 Rocket 4.0 20:32:08 19° S 20:36:45 78° E 20:43:02 10° NNE
NOSS 8 (F) 4.0 20:33:52 10° NW 20:36:47 79° NE 20:38:27 24° ESE
Helios 1A 3.2 20:35:37 10° N 20:39:30 61° WNW 20:42:24 17° SW
BREEZE-M DEB (TANK) 4.5 20:27:05 10° SW 20:41:24 48° SSE 20:45:20 10° E
Cosmos 2322 Rocket 4.4 20:38:35 10° WNW 20:41:33 15° W 20:44:31 10° SW
Cosmos 1634 Rocket 4.1 20:37:55 15° SSW 20:43:04 74° WNW 20:49:20 10° N
RESURS DK-1 3.0 20:40:05 10° NW 20:43:49 39° WSW 20:45:32 25° SSW
Cosmos 858 Rocket 4.4 20:39:18 10° NNW 20:44:30 86° WSW 20:47:52 22° SSE
Meteor 1-19 Rocket 4.5 20:42:18 21° S 20:46:11 65° E 20:52:06 10° NNE
Cosmos 1937 Rocket 3.6 20:41:55 10° NNW 20:47:01 63° WSW 20:50:05 24° S
SL-16 R/B 3.4 20:44:35 10° NNW 20:49:59 41° NE 20:55:21 10° ESE
Geosat 4.0 20:45:51 10° NNE 20:50:53 85° NW 20:55:36 12° SW
CZ-2C R/B 3.6 20:48:59 10° NNE 20:53:28 83° ESE 20:56:14 23° SSW
Cosmos 1707 4.0 20:52:04 12° WSW 20:54:02 23° WNW 20:56:22 10° NNW
Cosmos 468 Rocket 4.2 20:50:15 13° SW 20:55:02 75° WNW 21:00:19 10° NNE
Meteor 2-9 Rocket 4.4 20:50:47 10° NNW 20:56:05 59° W 20:59:35 22° S
GP-B 3.3 20:52:18 10° N 20:56:39 59° E 20:59:02 25° SSE
Intercosmos 24 4.0 20:53:17 10° N 20:57:19 62° ENE 20:59:07 26° SSE
Cosmos 2058 Rocket 4.0 20:53:53 13° SW 20:57:26 41° WNW 21:01:34 10° N
USA 234 4.0 20:53:26 10° ENE 20:59:07 31° SE 21:02:17 21° S
Cosmos 2237 Rocket 2.2 20:55:46 10° NW 21:01:29 80° WSW 21:05:22 21° SSE
CZ-2C R/B 2.9 20:57:43 18° SE 21:01:31 60° ENE 21:06:38 10° N
Cosmos 2266 Rocket 3.9 20:55:46 10° NNW 21:01:50 84° W 21:05:54 22° S
ATLAS 2AS CENTAUR R/B 3.5 20:58:03 10° WNW 21:04:42 52° NNE 21:11:19 10° E
Cosmos 2084 4.0 21:01:02 10° NW 21:05:07 56° NNE 21:09:12 10° ESE
Cosmos 1980 3.7 21:00:04 10° NW 21:05:42 71° WSW 21:09:25 22° SSE
CZ-4C R/B 3.8 21:00:32 10° WNW 21:05:51 43° N 21:12:43 10° E
SeaSat 1 3.1 21:03:32 10° ESE 21:08:17 53° NE 21:13:04 10° NNW
Lacrosse 4 Rocket 2.7 21:07:20 21° SE 21:08:19 23° ESE 21:11:33 10° ENE
COSMOS 2428 3.6 21:09:27 10° NW 21:14:33 35° WSW 21:17:37 20° SSW
Cosmos 1470 4.1 21:12:04 10° NW 21:14:45 23° W 21:16:07 17° SW
Cosmos 2227 Rocket 3.5 21:14:03 18° SE 21:16:53 26° ESE 21:21:27 10° NE
ARIANE 5 R/B 3.5 21:15:19 22° SSW 21:17:42 40° W 21:21:55 10° NNW
ALOS 2 3.2 21:17:23 24° SSW 21:19:41 44° W 21:23:55 10° NNW
Meteor 2-4 Rocket 4.1 21:18:12 22° SSE 21:21:29 51° E 21:26:51 10° NNE
Meteor 1-11 Rocket 4.1 21:18:44 10° NNW 21:24:17 55° W 21:27:43 22° SSW
CZ-2C R/B 3.5 21:19:02 10° NNE 21:24:45 63° E 21:28:27 23° S
Cosmos 2263 Rocket 3.9 21:22:17 14° SE 21:25:11 20° E 21:29:05 10° ENE
Helios 1B rocket 4.3 21:24:22 12° WSW 21:25:58 15° W 21:28:02 10° NW
Cosmos 1125 Rocket 4.3 21:22:00 10° NNW 21:27:10 49° NE 21:32:16 10° SE
Alouette 2 Rocket 3.4 21:24:37 10° NNW 21:28:20 87° ENE 21:30:59 24° SSE
Cosmos 1766 Rocket 3.5 21:26:32 10° NNW 21:30:51 81° W 21:33:09 27° S
BlueWalker 3 3.5 21:31:45 18° SE 21:31:45 18° SE 21:33:30 10° E
Meteor 1-10 Rocket 4.4 21:29:03 21° SSW 21:33:13 77° WNW 21:39:12 10° NNE
Cosmos 1758 4.3 21:31:07 10° N 21:34:30 36° ENE 21:36:50 17° SE
Cosmos 1655 Rocket 4.0 21:28:41 10° NNW 21:34:57 89° ENE 21:39:20 21° S
PSLV R/B 3.7 21:32:55 10° N 21:37:10 68° WNW 21:39:51 23° SSW
Cosmos 1238 Rocket 2.9 21:38:52 28° S 21:40:57 79° E 21:45:28 10° NNE
Cosmos 192 4.3 21:37:35 10° NNW 21:42:31 69° WSW 21:45:29 24° SSE
Meteor 2-10 Rocket 3.7 21:41:41 10° NNW 21:47:14 89° WSW 21:51:08 21° SSE
Meteor 1-27 Rocket 3.8 21:43:27 22° SSW 21:47:20 86° WNW 21:53:05 10° NNE
Cosmos 2297 Rocket 2.2 21:46:14 21° SSW 21:50:07 80° ESE 21:55:48 10° NE
Cosmos 841 Rocket 4.1 21:47:27 14° SW 21:51:54 55° NW 21:57:05 10° NNE
Cosmos 1340 Rocket 3.7 21:51:35 10° N 21:55:15 41° ENE 21:58:09 15° SE
ACS3 Solar Sail 2.3 21:52:37 10° NNE 21:58:24 47° E 22:02:41 18° SSE
Cosmos 1151 Rocket 4.3 21:58:14 16° SE 22:00:56 32° E 22:04:47 10° NNE
DELTA 2 DEB (DPAF) 4.5 21:59:41 10° NNE 22:03:03 38° E 22:04:45 23° SSE
Cosmos 158 Rocket 4.1 22:00:01 23° S 22:03:21 67° ESE 22:08:37 10° NNE
CZ-4C R/B 3.4 22:03:09 10° NNE 22:06:29 49° ESE 22:08:03 27° SSE
Cosmos 2221 4.2 22:03:18 11° WSW 22:06:29 25° WNW 22:10:00 10° N
SL-14 R/B 3.7 22:04:55 24° SSE 22:06:54 50° E 22:10:35 10° NNE
IDEFIX/ARIANE 42P 4.5 22:03:36 10° NE 22:07:30 21° E 22:11:22 10° SE
ATLAS 5 CENTAUR R/B 4.5 22:02:47 18° SSE 22:07:34 42° ESE 22:27:58 10° NE
Cosmos 1953 4.3 22:05:50 10° NNE 22:08:46 22° ENE 22:11:41 10° ESE
Landsat 5 3.4 22:06:23 10° NNE 22:10:30 78° ESE 22:12:40 26° S
Cosmos 1500 Rocket 3.9 22:06:20 10° N 22:10:46 64° ENE 22:14:01 18° SSE
Meteor 2-20 Rocket 4.5 22:10:09 20° SSW 22:14:08 66° WNW 22:19:51 10° N
Cosmos 1066 Rocket 4.1 22:13:26 22° SSW 22:17:02 90° S 22:22:39 10° NNE
Iridium 4 Rocket 3.8 22:18:00 21° S 22:21:56 77° W 22:27:48 10° N
Sich 1 3.2 22:22:07 10° NNW 22:26:12 55° W 22:28:30 24° SSW
NOSS 7 (H) 4.4 22:23:48 10° NW 22:26:48 65° NE 22:29:46 10° ESE
Okean 3 Rocket 3.8 22:23:24 10° NNW 22:27:52 59° W 22:30:35 23° S
Cosmos 1842 Rocket 3.8 22:31:35 22° SSW 22:34:18 61° WNW 22:38:43 10° N
SL-16 R/B 2.3 22:28:46 10° NW 22:34:21 58° WSW 22:38:56 15° S
Cosmos 1805 Rocket 3.5 22:35:28 10° NNW 22:39:47 69° W 22:42:38 21° S
Cosmos 2219 4.1 22:37:21 16° S 22:41:20 38° ESE 22:46:28 10° NE
CZ-2C R/B 3.7 22:39:09 17° SW 22:42:06 28° W 22:46:35 10° NNW
Meteor 1-18 Rocket 4.3 22:38:17 20° SSW 22:42:18 77° WNW 22:48:02 10° NNE
USA 234 3.3 22:36:22 10° ENE 22:42:55 69° SSE 22:49:27 10° WSW
Cosmos 2084 3.8 22:39:47 10° WNW 22:43:38 38° SW 22:46:11 18° S
Cosmos 2237 Rocket 3.8 22:40:54 10° WNW 22:44:41 19° W 22:47:09 14° SW
Cosmos 1743 Rocket 3.5 22:40:40 10° NNW 22:45:01 86° E 22:48:24 16° SSE
Cosmos 1553 Rocket 4.1 22:40:52 19° SSW 22:45:44 84° WNW 22:52:13 10° N
Lacrosse 4 Rocket 1.6 22:42:43 17° SW 22:45:44 65° NW 22:49:50 10° NE
SeaSat 1 3.1 22:42:54 20° S 22:45:49 38° WSW 22:50:24 10° NW
Cosmos 1867 3.7 22:41:29 10° NW 22:47:00 82° NE 22:52:30 10° SE
Cosmos 1709 Rocket 4.1 22:43:14 10° N 22:49:27 77° ENE 22:55:42 10° SSE
In-Cosmos 22 4.2 22:46:49 19° SSW 22:50:55 82° WNW 22:56:40 10° NNE
CZ-4C R/B 3.1 22:48:47 10° NW 22:54:58 71° NNE 23:03:00 10° ESE
ATLAS 2AS CENTAUR R/B 2.6 22:49:14 10° NW 22:56:02 77° SW 23:02:49 10° SE
PSLV R/B 3.8 22:56:16 10° NNE 23:00:10 84° ESE 23:02:51 20° SSW
Cosmos 2227 Rocket 2.3 22:55:49 16° SW 23:00:23 78° NW 23:06:06 10° NNE
Cosmos 1408 Rocket 4.1 22:58:46 10° NNW 23:02:50 42° W 23:05:33 19° SSW
EXPRESS MD2 4.0 23:04:05 15° SE 23:04:05 15° SE 23:04:56 10° SE
Meteor 1-22 Rocket 4.2 23:01:52 10° NNW 23:07:44 82° WSW 23:13:17 10° S
BlueWalker 3 2.0 23:05:21 17° SW 23:07:46 47° SSE 23:11:11 10° E
Cosmos 2263 Rocket 2.2 23:03:56 17° SSW 23:08:19 85° ESE 23:13:56 10° NE
Cosmos 1125 Rocket 4.2 23:04:13 10° NW 23:09:04 37° WSW 23:12:45 16° SSW
Cosmos 1758 4.5 23:06:30 10° NW 23:09:29 24° W 23:11:14 17° SW
Cosmos 2298 Rocket 4.1 23:04:46 10° NNW 23:10:08 90° NE 23:15:27 10° SSE
Cosmos 1570 Rocket 4.4 23:07:22 15° S 23:11:35 57° ESE 23:16:49 10° NNE
Cosmos 1745 Rocket 4.1 23:06:26 10° NNW 23:12:30 64° W 23:18:00 13° S
Cosmos 1328 Rocket 4.4 23:09:55 11° SSE 23:13:58 47° E 23:18:13 10° NNE
Spot 1 4.3 23:10:52 10° NNE 23:15:33 89° WSW 23:19:28 16° SSW
Cosmos 1943 3.2 23:12:10 10° NW 23:17:45 65° WSW 23:23:17 10° SSE
Resurs 1-4 Rocket 4.1 23:15:45 10° NE 23:19:55 23° E 23:24:04 10° SE
Cosmos 773 Rocket 4.3 23:18:57 14° S 23:23:13 60° ESE 23:28:16 10° NNE
Cosmos 1340 Rocket 4.1 23:27:27 10° NW 23:30:35 24° W 23:32:46 15° SW
Cosmos 1833 Rocket 4.4 23:27:23 10° NNW 23:32:36 37° NE 23:37:49 10° ESE
Cosmos 2150 Rocket 4.2 23:27:45 10° NNW 23:33:08 62° WSW 23:38:30 10° S
Cosmos 2297 Rocket 3.6 23:29:40 10° W 23:34:44 33° NW 23:39:49 10° NNE
Cosmos 44 Rocket 3.8 23:30:28 10° NW 23:35:41 70° NE 23:40:50 10° ESE
CENTAUR R/B 3.5 23:31:16 11° S 23:36:18 37° ESE 23:42:41 10° NE
Cosmos 1151 Rocket 3.9 23:34:52 14° SW 23:38:14 38° WNW 23:42:18 10° N
Meteor 1-16 Rocket 4.1 23:33:06 10° NNW 23:38:27 86° ENE 23:43:47 10° SSE
Cosmos 1844 Rocket 3.6 23:33:57 10° S 23:39:06 40° ESE 23:44:16 10° NE
Meteor 1-15 Rocket 4.4 23:33:47 10° NNW 23:39:41 69° W 23:45:32 10° S
ALOS 4.1 23:36:30 10° NE 23:40:19 26° E 23:44:06 10° SSE
BREEZE-M DEB (TANK) 4.3 23:39:18 14° SW 23:40:40 17° S 23:44:39 10° SSE
ACS3 Solar Sail 2.4 23:35:09 10° N 23:40:45 43° WNW 23:46:10 11° SW
Cosmos 2184 Rocket 4.4 23:37:15 10° N 23:43:25 65° ENE 23:49:32 10° SSE
Cosmos 2082 3.8 23:38:39 13° SSW 23:43:43 79° ESE 23:49:22 10° NE
Cosmos 1953 2.6 23:40:25 10° NNW 23:43:54 42° W 23:46:58 12° SSW
Okean 2 4.4 23:40:39 10° SSE 23:44:13 39° E 23:47:48 10° NNE
Cosmos 1633 Rocket 3.1 23:40:46 10° NNW 23:45:03 62° W 23:49:18 10° S
Cosmos 1603 3.7 23:40:00 10° NW 23:45:47 80° WSW 23:51:32 10° SSE
IDEFIX/ARIANE 42P 2.6 23:42:20 10° NNE 23:47:36 83° WNW 23:52:42 11° SSW
Cosmos 1470 Rocket 3.5 23:43:25 10° NNW 23:47:48 83° W 23:52:11 10° S
MSX 3.9 23:43:02 10° NNE 23:48:51 84° WNW 23:54:35 10° SSW
Cosmos 2208 Rocket 4.1 23:44:53 12° SSW 23:49:52 79° ESE 23:55:08 10° NNE
H-2A R/B 3.8 23:45:24 10° NNE 23:50:10 31° E 23:54:58 10° SSE
Cosmos 1933 Rocket 4.1 23:50:56 10° N 23:55:16 59° ENE 23:59:33 10° SSE
